This is the latest recevied weather packets stored in our database for station/object KC9Q. If no packets are shown the sender has not sent any weather packets the latest 1 day(s).
| Time | Temp. | Humidity | Pressure | Rain* | Wind** | Luminosity | Snow |
|---|---|---|---|---|---|---|---|
| 1778050006 | 10° C | 96% | 1010.5 hPa | 0 mm | - | 0 W/m² | - |
| 1778049400 | 10° C | 97% | 1010 hPa | 0 mm | - | 0 W/m² | - |
| 1778049096 | 10° C | 97% | 1009.9 hPa | 0 mm | - | 0 W/m² | - |
| 1778048795 | 10° C | 97% | 1010 hPa | 0 mm | - | 0 W/m² | - |
| 1778047280 | 9.44° C | 98% | 1010.1 hPa | 13.21 mm | - | 0 W/m² | - |
| 1778046674 | 10° C | 97% | 1010.5 hPa | 1.78 mm | - | 0 W/m² | - |
| 1778046067 | 10° C | 97% | 1008.6 hPa | 0 mm | - | 0 W/m² | - |
| 1778045161 | 10° C | 97% | 1008.6 hPa | 0.51 mm | - | 0 W/m² | - |
| 1778044859 | 10° C | 97% | 1009.1 hPa | 0 mm | - | 0 W/m² | - |
| 1778044252 | 10° C | 98% | 1008.9 hPa | 0 mm | - | 0 W/m² | - |
| 1778043950 | 10° C | 98% | 1008.6 hPa | 0 mm | - | 0 W/m² | - |
| 1778042738 | 10.56° C | 97% | 1008.3 hPa | 0 mm | - | 0 W/m² | - |
| 1778042435 | 10.56° C | 97% | 1008.4 hPa | 0 mm | - | 0 W/m² | - |
| 1778042132 | 10.56° C | 98% | 1008.3 hPa | 0 mm | - | 0 W/m² | - |
| 1778041227 | 10.56° C | 98% | 1008.7 hPa | 0 mm | - | 0 W/m² | - |
| 1778040925 | 10.56° C | 98% | 1008.9 hPa | 0 mm | - | 0 W/m² | - |
| 1778040319 | 10.56° C | 99% | 1008.9 hPa | 0 mm | - | 0 W/m² | - |
| 1778040015 | 10.56° C | 99% | 1008.7 hPa | 0 mm | - | 0 W/m² | - |
| 1778039409 | 10.56° C | 99% | 1008.7 hPa | 0.51 mm | - | 0 W/m² | - |
| 1778039107 | 10.56° C | 99% | 1008.8 hPa | 0.51 mm | - | 0 W/m² | - |
| 1778038501 | 10.56° C | 98% | 1008.8 hPa | 0 mm | - | 0 W/m² | - |
| 1778038197 | 10.56° C | 98% | 1009 hPa | 0 mm | - | 0 W/m² | - |
| 1778037895 | 10.56° C | 99% | 1008.6 hPa | 0 mm | - | 0 W/m² | - |
| 1778037591 | 10.56° C | 99% | 1008.8 hPa | 0.51 mm | - | 0 W/m² | - |
| 1778037289 | 10.56° C | 99% | 1008.6 hPa | 2.29 mm | - | 0 W/m² | - |
* Rain latest hour (hover to see other rain measurements)
** Current wind speed in m/s (hover to see current wind gust speed)